DW7584 Weather Reports


Display with metric or nautical units.
time (UTC)temp
F
wind
direction
speed
MPH
gust
MPH
rain 1hr
in
rain 24hr
in
rain mn
in
humidity
%
barometer
mb
20260505182536 52 248 17.0 22.0 0.00 0.00 0.00 43 1008.1
20260505181536 52 248 16.0 22.0 0.00 0.00 0.00 42 1008.1
20260505180516 51 248 15.0 19.0 0.00 0.00 0.00 44 1007.9
20260505175516 52 248 17.0 23.0 0.00 0.00 0.00 43 1008.0
20260505174516 51 248 11.0 16.0 0.00 0.00 0.00 43 1007.8
20260505173517 52 248 15.0 20.0 0.00 0.00 0.00 44 1007.9
20260505172516 52 225 13.0 19.0 0.00 0.00 0.00 43 1007.9
20260505171516 51 248 10.0 16.0 0.00 0.00 0.00 44 1007.8
20260505170516 51 248 13.0 22.0 0.00 0.00 0.00 49 1007.8
20260505165516 51 248 10.0 15.0 0.00 0.00 0.00 47 1007.8
20260505164516 50 248 13.0 18.0 0.00 0.00 0.00 42 1007.7
20260505163536 50 248 14.0 19.0 0.00 0.00 0.00 48 1007.6
20260505162516 50 248 13.0 17.0 0.00 0.00 0.00 51 1007.8
20260505161516 49 248 14.0 21.0 0.00 0.00 0.00 50 1007.6
20260505160516 49 248 13.0 16.0 0.00 0.00 0.00 49 1007.8
20260505152516 49 248 14.0 21.0 0.00 0.00 0.00 51 1008.0
20260505151516 49 248 11.0 16.0 0.00 0.00 0.00 55 1008.0
20260505150516 49 225 11.0 17.0 0.00 0.00 0.00 52 1008.0
20260505140516 48 270 8.0 11.0 0.00 0.00 0.00 52 1008.1
20260505124516 45 248 9.0 12.0 0.00 0.00 0.00 57 1007.5
20260505123516 45 248 7.0 9.0 0.00 0.00 0.00 58 1007.4
20260505122516 44 248 6.0 9.0 0.00 0.00 0.00 60 1007.3
20260505121516 44 248 6.0 8.0 0.00 0.00 0.00 62 1007.2
20260505120515 43 248 6.0 9.0 0.00 0.00 0.00 64 1007.2
20260505115516 42 225 4.0 5.0 0.00 0.00 0.00 69 1007.1
20260505114515 41 225 3.0 4.0 0.00 0.00 0.00 70 1007.1
20260505113516 40 225 3.0 4.0 0.00 0.00 0.00 71 1007.1
20260505112515 39 225 3.0 4.0 0.00 0.00 0.00 70 1007.0
20260505111515 38 225 2.0 4.0 0.00 0.00 0.00 71 1006.7
20260505110516 37 225 2.0 5.0 0.00 0.00 0.00 71 1006.8
20260505101517 37 225 3.0 4.0 0.00 0.00 0.00 72 1006.3
20260505100517 36 225 3.0 4.0 0.00 0.00 0.00 72 1006.3
20260505095517 36 203 2.0 3.0 0.00 0.00 0.00 72 1006.3
20260505094515 36 203 1.0 2.0 0.00 0.00 0.00 71 1006.1
20260505093517 37 203 2.0 3.0 0.00 0.00 0.00 70 1005.9
20260505092517 38 203 2.0 3.0 0.00 0.00 0.00 68 1005.7
20260505091517 39 225 2.0 3.0 0.00 0.00 0.00 62 1005.5
20260505090517 40 225 2.0 3.0 0.00 0.00 0.00 59 1005.4
20260505085518 40 248 3.0 3.0 0.00 0.00 0.00 57 1005.3
20260505084559 41 248 3.0 3.0 0.00 0.00 0.00 56 1005.1
20260505083518 41 248 3.0 3.0 0.00 0.00 0.00 56 1005.2
20260505082517 41 248 2.0 3.0 0.00 0.00 0.00 56 1005.3
20260505081517 40 270 2.0 3.0 0.00 0.00 0.00 58 1005.1
20260505080518 40 270 2.0 3.0 0.00 0.00 0.00 59 1005.1
20260505075517 41 270 3.0 3.0 0.00 0.00 0.00 60 1005.0
20260505074518 41 270 4.0 5.0 0.00 0.00 0.00 59 1005.0
20260505073518 42 270 4.0 7.0 0.00 0.00 0.00 55 1005.1
20260505072518 43 270 6.0 8.0 0.00 0.00 0.00 54 1005.2
20260505071517 43 270 7.0 10.0 0.00 0.00 0.00 52 1005.2
20260505070517 44 270 9.0 12.0 0.00 0.00 0.00 50 1005.0
20260505065517 44 270 11.0 17.0 0.00 0.00 0.00 50 1005.1
20260505064517 44 293 8.0 10.0 0.00 0.00 0.00 55 1005.0
20260505063518 44 293 7.0 12.0 0.00 0.00 0.00 55 1005.0
20260505062517 45 293 9.0 14.0 0.00 0.00 0.00 52 1004.9
20260505061517 45 293 10.0 15.0 0.00 0.00 0.00 53 1004.8
20260505060518 46 270 12.0 16.0 0.00 0.00 0.00 52 1004.7
20260505055518 47 270 13.0 19.0 0.00 0.00 0.00 54 1004.7
20260505054517 47 270 11.0 18.0 0.00 0.00 0.00 53 1004.6
20260505053517 47 270 8.0 11.0 0.00 0.00 0.00 56 1004.4
20260505052517 48 270 12.0 16.0 0.00 0.00 0.00 53 1004.2
20260505051537 48 293 8.0 10.0 0.00 0.00 0.00 55 1004.1
20260505050517 49 293 9.0 15.0 0.00 0.00 0.00 53 1003.9
20260505041537 52 293 5.0 10.0 0.00 0.00 0.00 53 1002.8
20260505040517 52 293 6.0 10.0 0.00 0.00 0.00 50 1002.5
20260505035517 53 293 9.0 14.0 0.00 0.00 0.00 49 1002.2
20260505034518 54 293 8.0 13.0 0.00 0.00 0.00 48 1001.8
20260505033538 54 270 9.0 13.0 0.00 0.00 0.00 49 1001.4
20260505032517 55 270 10.0 15.0 0.00 0.00 0.00 47 1001.0
20260505031537 55 270 9.0 13.0 0.00 0.00 0.00 47 1000.8
20260505030517 55 270 8.0 11.0 0.00 0.00 0.00 48 1000.7
20260505025517 56 270 10.0 14.0 0.00 0.00 0.00 46 1000.5
20260505024517 56 270 12.0 18.0 0.00 0.00 0.00 47 1000.6
20260505023517 57 270 13.0 18.0 0.00 0.00 0.00 46 1000.5
20260505022517 58 270 13.0 18.0 0.00 0.00 0.00 44 1000.1
20260505021517 58 270 12.0 16.0 0.00 0.00 0.00 42 999.7
20260505020519 58 270 11.0 17.0 0.00 0.00 0.00 41 999.3
20260505015517 59 270 12.0 18.0 0.00 0.00 0.00 42 999.3
20260505014517 60 270 13.0 20.0 0.00 0.00 0.00 38 998.9
20260505013517 60 270 15.0 21.0 0.00 0.00 0.00 38 998.9
20260505012517 60 270 11.0 15.0 0.00 0.00 0.00 44 998.7
20260505011517 60 270 13.0 17.0 0.00 0.00 0.00 43 998.2
20260505010517 60 248 9.0 12.0 0.00 0.00 0.00 46 997.9
20260505005517 61 248 10.0 13.0 0.00 0.00 0.00 43 997.7
20260505004537 62 270 12.0 16.0 0.00 0.00 0.00 40 997.5
20260505003517 62 270 11.0 14.0 0.00 0.00 0.00 40 997.3
20260505002517 63 248 14.0 19.0 0.00 0.00 0.00 42 997.1
20260505001517 63 248 13.0 17.0 0.00 0.00 0.00 41 997.0
20260505000517 64 248 12.0 17.0 0.00 0.00 0.00 40 996.8
20260504235517 64 248 15.0 20.0 0.00 0.00 0.00 38 996.7
20260504234516 65 248 16.0 23.0 0.00 0.00 0.00 38 996.6
20260504233517 65 248 17.0 23.0 0.00 0.00 0.00 40 996.6
20260504232518 65 248 14.0 21.0 0.00 0.00 0.00 40 996.7
20260504231517 66 248 16.0 21.0 0.00 0.00 0.00 38 996.4
20260504230517 66 248 14.0 18.0 0.00 0.00 0.00 38 996.4
20260504225517 66 248 14.0 18.0 0.00 0.00 0.00 39 996.2
20260504224517 67 248 16.0 21.0 0.00 0.00 0.00 40 996.3
20260504223517 67 248 16.0 21.0 0.00 0.00 0.00 39 996.1
20260504222516 67 248 15.0 20.0 0.00 0.00 0.00 38 996.1
20260504221517 68 270 18.0 23.0 0.00 0.00 0.00 39 996.1
20260504220518 68 248 16.0 21.0 0.00 0.00 0.00 38 996.0
20260504215518 69 248 19.0 25.0 0.00 0.00 0.00 36 995.8
20260504214517 70 270 16.0 22.0 0.00 0.00 0.00 38 995.6
20260504213517 70 270 14.0 18.0 0.00 0.00 0.00 35 995.5
20260504212516 70 248 13.0 18.0 0.00 0.00 0.00 39 995.5
20260504211516 70 270 16.0 21.0 0.00 0.00 0.00 37 995.3
20260504210517 71 270 14.0 21.0 0.00 0.00 0.00 38 995.1
20260504205516 73 248 15.0 23.0 0.00 0.00 0.00 38 995.0
20260504204536 73 248 18.0 22.0 0.00 0.00 0.00 39 995.0
20260504203536 73 248 19.0 24.0 0.00 0.00 0.00 39 995.0
20260504202516 73 248 19.0 24.0 0.00 0.00 0.00 39 994.8
20260504201517 73 248 20.0 28.0 0.00 0.00 0.00 41 994.9
20260504200516 74 248 24.0 32.0 0.00 0.00 0.00 37 994.8
20260504195516 74 248 23.0 31.0 0.00 0.00 0.00 42 995.1
20260504194516 74 248 20.0 28.0 0.00 0.00 0.00 41 995.3
20260504193516 74 248 18.0 24.0 0.00 0.00 0.00 43 995.3
20260504192516 73 248 20.0 28.0 0.00 0.00 0.00 40 995.2
20260504191516 75 225 19.0 27.0 0.00 0.00 0.00 42 995.4
20260504190516 74 248 22.0 34.0 0.00 0.00 0.00 39 995.4
20260504185516 74 248 20.0 30.0 0.00 0.00 0.00 41 995.2
20260504184516 73 248 23.0 28.0 0.00 0.00 0.00 41 995.2
20260504183517 74 225 21.0 29.0 0.00 0.00 0.00 41 995.4